Weather History for Monroe, LA

Change the Weather History Date:

Wednesday, October 8, 2014

  Actual Average Record
Temperature  
Mean Temperature 79 °F 69 °F  
Max Temperature 88 °F 82 °F 94 °F (2010)
Min Temperature 69 °F 56 °F 37 °F (1952)
Degree Days  
Heating Degree Days 0 1  
Month to date heating degree days 5 8  
Since 1 July heating degree days 5 14  
Cooling Degree Days 14 5  
Month to date cooling degree days 59 48  
Year to date cooling degree days 2202 2412  
Growing Degree Days 28 (Base 50)    
Moisture  
Dew Point 69 °F    
Average Humidity 75    
Maximum Humidity 100    
Minimum Humidity 50    
Precipitation  
Precipitation 0.00 in 0.15 in 2.23 in (1930)
Month to date precipitation 1.32 1.15  
Year to date precipitation 41.80 40.26  
Snow  
Snow 0.00 in - - ()
Month to date snowfall 0.0  
Since 1 July snowfall 0.0  
Since 1 September snowfall 0.0  
Snow Depth 0.00 in    
Sea Level Pressure  
Sea Level Pressure 30.07 in    
Wind  
Wind Speed 3 mph (SSW)    
Max Wind Speed 10 mph    
Max Gust Speed 14 mph    
Visibility 9 miles    
Events      
T = Trace of Precipitation, MM = Missing Value Source: NWS Daily Summary

Daily Weather History Graph

Daily Weather History Graph

Search for Another Location

Airport:

Trip Planner

Search our weather history database for the weather conditions in past years. The results will help you decide how hot, cold, wet, or windy it might be!

Date:

Astronomy

Oct. 08, 2014 Rise Set
Actual Time 7:06 AM CDT 6:43 PM CDT
Civil Twilight 6:42 AM CDT 7:08 PM CDT
Nautical Twilight 6:13 AM CDT 7:36 PM CDT
Astronomical Twilight 5:45 AM CDT 8:05 PM CDT
Moon 7:01 PM CDT (10/8) 7:12 AM CDT (10/8)
Length of Visible Light 12h 26m
Length of Day
11h 36m
Full, 100% of the Moon is Illuminated
Oct 8
Full
Oct 15
Last Quarter
Oct 23
New
Oct 30
First Quarter
Nov 6
Full

Hourly Weather History & Observations

Time (CDT) Temp. Heat Index Dew Point Humidity Pressure Visibility Wind Dir Wind Speed Gust Speed Precip Events Conditions
12:53 AM 71.1 °F - 68.0 °F 90% 30.01 in 10.0 mi South 4.6 mph - N/A   Clear
1:53 AM 72.0 °F - 68.0 °F 87% 30.02 in 10.0 mi SSW 4.6 mph - N/A   Clear
2:53 AM 71.1 °F - 68.0 °F 90% 30.03 in 10.0 mi SSW 4.6 mph - N/A   Clear
3:53 AM 69.1 °F - 66.9 °F 93% 30.03 in 10.0 mi South 3.5 mph - N/A   Clear
4:53 AM 69.1 °F - 66.9 °F 93% 30.04 in 10.0 mi Calm Calm - N/A   Scattered Clouds
5:05 AM 69.8 °F - 66.2 °F 88% 30.05 in 9.0 mi Calm Calm - N/A   Mostly Cloudy
5:39 AM 69.8 °F - 68.0 °F 94% 30.07 in 10.0 mi Calm Calm - N/A   Overcast
5:53 AM 70.0 °F - 69.1 °F 97% 30.07 in 5.0 mi Calm Calm - N/A   Overcast
6:08 AM 71.6 °F - 69.8 °F 94% 30.08 in 2.5 mi SW 4.6 mph - N/A   Overcast
6:39 AM 71.6 °F - 69.8 °F 94% 30.08 in 6.0 mi WSW 4.6 mph - N/A   Overcast
6:53 AM 71.1 °F - 70.0 °F 96% 30.09 in 10.0 mi SW 4.6 mph - N/A   Overcast
7:24 AM 71.6 °F - 69.8 °F 94% 30.09 in 9.0 mi SSW 3.5 mph - N/A   Overcast
7:53 AM 71.1 °F - 70.0 °F 96% 30.09 in 5.0 mi South 3.5 mph - N/A   Overcast
8:53 AM 73.0 °F - 70.0 °F 90% 30.12 in 10.0 mi South 4.6 mph - N/A   Haze
9:13 AM 73.4 °F - 69.8 °F 88% 30.12 in 10.0 mi SW 4.6 mph - N/A   Haze
9:42 AM 75.2 °F - 69.8 °F 83% 30.12 in 10.0 mi WSW 6.9 mph - N/A   Overcast
9:53 AM 75.9 °F - 70.0 °F 82% 30.12 in 10.0 mi WSW 6.9 mph - N/A   Mostly Cloudy
10:40 AM 77.0 °F - 69.8 °F 78% 30.13 in 10.0 mi WSW 8.1 mph - N/A   Scattered Clouds
10:53 AM 78.1 °F - 69.1 °F 74% 30.13 in 10.0 mi WSW 6.9 mph - N/A   Partly Cloudy
11:02 AM 78.8 °F - 69.8 °F 74% 30.13 in 10.0 mi Variable 4.6 mph - N/A   Mostly Cloudy
11:53 AM 82.0 °F 85.5 °F 69.1 °F 65% 30.12 in 10.0 mi SSW 5.8 mph - N/A   Mostly Cloudy
12:00 PM 82.4 °F 85.4 °F 68.0 °F 62% 30.12 in 10.0 mi SW 5.8 mph - N/A   Clear
12:53 PM 84.0 °F 87.0 °F 68.0 °F 58% 30.10 in 10.0 mi Variable 5.8 mph - N/A   Clear
1:53 PM 86.0 °F 89.4 °F 68.0 °F 55% 30.08 in 10.0 mi WSW 6.9 mph - N/A   Scattered Clouds
2:53 PM 87.1 °F 91.3 °F 69.1 °F 55% 30.05 in 10.0 mi Variable 3.5 mph - N/A   Clear
3:53 PM 87.1 °F 90.6 °F 68.0 °F 53% 30.04 in 10.0 mi South 4.6 mph - N/A   Clear
4:53 PM 87.1 °F 89.2 °F 66.0 °F 49% 30.03 in 10.0 mi SSW 3.5 mph - N/A   Clear
5:53 PM 82.9 °F 85.8 °F 68.0 °F 60% 30.03 in 10.0 mi Calm Calm - N/A   Clear
6:53 PM 77.0 °F - 70.0 °F 79% 30.03 in 10.0 mi Calm Calm - N/A   Clear
7:53 PM 73.9 °F - 69.1 °F 85% 30.04 in 10.0 mi SSE 4.6 mph - N/A   Partly Cloudy
8:53 PM 75.0 °F - 68.0 °F 79% 30.05 in 10.0 mi South 3.5 mph - N/A   Clear
9:53 PM 71.6 °F - 68.0 °F 88% 30.06 in 10.0 mi Calm Calm - N/A   Clear
10:53 PM 69.1 °F - 66.9 °F 93% 30.05 in 10.0 mi Calm Calm - N/A   Clear
11:53 PM 69.1 °F - 66.9 °F 93% 30.05 in 10.0 mi Calm Calm - N/A   Clear